Observations for Trim Patrick St
| Time | AQI | Temp °C | Hum % | Pres Pa | CO μg/m³ | H₂S μg/m³ | NO μg/m³ | NO₂ μg/m³ | O₃ μg/m³ | SO₂ μg/m³ | PM1 μg/m³ | PM2.5 μg/m³ | PM10 μg/m³ |
|---|---|---|---|---|---|---|---|---|---|---|---|---|---|
| Saturday 1 August 2026 | |||||||||||||
| 20:04 | 3 | 24.2 | 39 | 68,910 | 0 | 20.17 | 0.9 | 24.28 | 76.92 | 11.73 | 2 | 7.88 | 8.67 |
| 20:03 | 3 | 24.3 | 39 | 68,928 | 0 | 19.3 | 0.88 | 26.32 | 82.55 | 11.76 | 2.86 | 8.66 | 9.53 |
| 20:02 | 3 | 24.3 | 39 | 68,924 | 0 | 20.86 | 0.87 | 25.01 | 84.57 | 11.44 | 4.57 | 9.46 | 10.41 |
| 20:01 | 3 | 24.4 | 39 | 68,922 | 0 | 21.79 | 0.88 | 24.62 | 76.41 | 12.18 | 2.86 | 8.69 | 9.56 |
| 20:00 | 3 | 24.4 | 39 | 68,916 | 0 | 21.15 | 0.87 | 38.85 | 91.64 | 11.66 | 4.57 | 10.27 | 11.3 |
| 19:59 | 3 | 24.5 | 39 | 68,937 | 0 | 20.27 | 0.88 | 18.73 | 75.26 | 11.98 | 2.86 | 8.71 | 9.58 |
| 19:58 | 3 | 24.6 | 38 | 68,937 | 0 | 20.91 | 0.89 | 37.89 | 70.59 | 11.37 | 3.71 | 9.51 | 10.46 |
| 19:57 | 3 | 24.6 | 39 | 68,967 | 0 | 19.85 | 0.9 | 22.26 | 93.89 | 11.96 | 2.86 | 8.71 | 9.58 |
| 19:56 | 3 | 24.7 | 38 | 68,975 | 0 | 18.22 | 0.9 | 17.98 | 80.36 | 11.96 | 4.57 | 10.3 | 11.33 |
| 19:55 | 3 | 24.8 | 38 | 68,989 | 0 | 18.43 | 0.89 | 21.72 | 86.81 | 11.62 | 2.86 | 8.74 | 9.61 |
| 19:54 | 3 | 24.8 | 38 | 68,999 | 0 | 18.86 | 0.94 | 17.32 | 91.5 | 12.65 | 3.71 | 9.54 | 10.5 |
| 19:53 | 3 | 24.9 | 38 | 68,957 | 0 | 19.65 | 0.94 | 19.48 | 90.1 | 12.41 | 4.57 | 11.14 | 12.26 |
| 19:52 | 3 | 25 | 38 | 68,959 | 0 | 19.09 | 0.99 | 22.4 | 85.21 | 12.24 | 3.71 | 10.36 | 11.4 |
| 19:51 | 3 | 25.1 | 37 | 68,961 | 0 | 20.87 | 0.93 | 18.54 | 91.69 | 13.42 | 4.57 | 11.16 | 12.27 |
| 19:50 | 3 | 25.2 | 37 | 68,995 | 0 | 17.54 | 1.01 | 22.62 | 88.2 | 11.99 | 4.57 | 10.38 | 11.42 |
| 19:49 | 3 | 25.3 | 37 | 69,006 | 0 | 17.17 | 0.95 | 16.2 | 82.6 | 12.93 | 4.57 | 10.39 | 11.43 |
| 19:48 | 3 | 25.3 | 37 | 68,999 | 0 | 21.47 | 1.03 | 20.38 | 80.69 | 13.1 | 4.57 | 11.2 | 12.32 |
| 19:47 | 3 | 25.4 | 37 | 69,012 | 0 | 16.74 | 0.93 | 18.99 | 88.07 | 12.47 | 5.43 | 11.2 | 12.32 |
| 19:46 | 3 | 25.5 | 37 | 69,001 | 0 | 17.53 | 0.93 | 17.9 | 83.91 | 12.29 | 6.29 | 12.79 | 14.07 |
| 19:45 | 3 | 25.6 | 37 | 69,016 | 0 | 20.13 | 0.94 | 23.51 | 89.48 | 13.29 | 6.29 | 13.59 | 14.95 |